Flag for Russia Weather past 2 weeks in Volgograd, Russia

Now
90 °F

Sunny.


Feels Like: 86 °F
Forecast: 70 / 91 °F
Wind: 15 mph from Southeast

Location: Volgograd Airport

Current Time: May 28, 2015 at 5:22:32 PM

Latest Report: May 28, 2015 at 4:30 PM


Visibility: 10 mi

Pressure: 29.62 "Hg

Humidity: 22%

Dew point: 46 °F

Location of VolgogradLocation

Historic Weather in Volgograd — Graph

°F

Volgograd temperature yesterday

Maximum temperature yesterday: 91 °F (at 1:00 PM)
Minimum temperature yesterday: 64 °F (at 1:30 AM)
Average temperature yesterday: 78 °F

Past Weeks' High & Low Weather Summary

 TemperatureHumidityPressure
High91 °F (May 27, 1:00 PM)94% (May 16, 4:00 AM)30.18 "Hg (May 16, 4:00 AM)
Low39 °F (May 20, 3:00 AM)13% (May 25, 4:30 PM)29.62 "Hg (May 28, 4:00 PM)
Average64 °F46%29.93 "Hg
* Reported May 13 4:00 PM — May 28 4:00 PM, Volgograd, Weather by CustomWeather, © 2015

Note: Actual official high and low records may vary slightly from our data, if they occured in-between our weather recording intervals... More about our weather records

Advertising

Volgograd weather history for previous 24 hours

 ConditionsComfort  
Time TempWeatherWind HumidityBarometerVisibility
4:00 PM
Thu, May 28
90 °FPassing clouds.15 mph22%29.62 "HgN/A
3:30 PM90 °FPassing clouds.13 mph22%29.65 "HgN/A
3:00 PM90 °FSunny.15 mph22%29.65 "Hg10 mi
2:30 PM88 °FSunny.15 mph25%29.65 "Hg10 mi
2:00 PM88 °FSunny.15 mph25%29.65 "Hg10 mi
1:30 PM86 °FPassing clouds.13 mph31%29.65 "HgN/A
1:00 PM86 °FPassing clouds.15 mph31%29.65 "HgN/A
12:30 PM86 °FSunny.17 mph31%29.68 "Hg10 mi
12:00 PM84 °FSunny.17 mph31%29.68 "Hg10 mi
11:30 AM84 °FSunny.17 mph31%29.68 "Hg10 mi
11:00 AM82 °FSunny.20 mph32%29.68 "Hg10 mi
10:30 AM81 °FSunny.20 mph37%29.68 "Hg10 mi
10:00 AM81 °FSunny.17 mph37%29.68 "Hg10 mi
9:30 AM77 °FSunny.17 mph42%29.68 "Hg10 mi
9:00 AM77 °FSunny.15 mph42%29.68 "Hg10 mi
8:30 AM75 °FSunny.15 mph44%29.68 "Hg10 mi
8:00 AM73 °FSunny.10 mph47%29.68 "Hg10 mi
7:30 AM72 °FSunny.10 mph53%29.68 "Hg10 mi
7:00 AM70 °FSunny.13 mph57%29.68 "Hg10 mi
6:30 AM70 °FSunny.13 mph53%29.68 "Hg10 mi
6:00 AM68 °FSunny.13 mph56%29.68 "Hg10 mi
5:30 AM68 °FSunny.10 mph56%29.68 "Hg10 mi
5:00 AM64 °FSunny.8 mph60%29.68 "Hg10 mi
4:30 AM63 °FSunny.8 mph64%29.68 "Hg10 mi
4:00 AM64 °FClear.8 mph56%29.68 "Hg10 mi
3:30 AM64 °FClear.8 mph56%29.68 "Hg10 mi
3:00 AM66 °FClear.8 mph52%29.68 "Hg10 mi
2:30 AM68 °FClear.10 mph49%29.68 "Hg10 mi
2:00 AM70 °FClear.10 mph46%29.71 "Hg10 mi
1:30 AM70 °FClear.13 mph43%29.68 "Hg10 mi
1:00 AM70 °FClear.10 mph43%29.71 "Hg10 mi
12:30 AM72 °FClear.10 mph36%29.71 "Hg10 mi
12:00 AM72 °FClear.13 mph36%29.71 "Hg10 mi
11:30 PM
Wed, May 27
72 °FClear.10 mph33%29.74 "Hg10 mi
11:00 PM73 °FClear.8 mph31%29.74 "Hg10 mi
10:30 PM77 °FClear.13 mph28%29.74 "Hg10 mi
10:00 PM79 °FClear.13 mph24%29.74 "Hg10 mi
9:30 PM79 °FClear.10 mph24%29.74 "Hg10 mi
9:00 PM81 °FClear.10 mph23%29.77 "Hg10 mi
8:30 PM81 °FPassing clouds.8 mph23%29.77 "HgN/A
8:00 PM82 °FPassing clouds.10 mph20%29.74 "HgN/A
7:30 PM82 °FPartly sunny.8 mph20%29.74 "HgN/A
7:00 PM82 °FPartly sunny.10 mph23%29.77 "HgN/A
6:30 PM82 °FSunny.10 mph26%29.77 "Hg10 mi
6:00 PM84 °FSunny.15 mph23%29.77 "Hg10 mi
5:30 PM86 °FSunny.17 mph20%29.77 "Hg10 mi
5:00 PM88 °FPassing clouds.8 mph19%29.77 "HgN/A
Weather by CustomWeather, © 2015

See weather overviewHow to use our weather pages